Date String (YYYY-MM-DD hh:mm:ss) UTC,Instrument flags,absolute air pressure of the measurement (hPa),sample flow rate (lpm),inlet stack bypass flow (lpm),air temperature of the measurement (°C),ambient temperature measured by the external sensor (°C),aerosol sample conditioner tube jacket temperature (°C),OPC LED temperature (°C),internal box temperature (°C),relative humidity of the measurement (%),span deviation,mass concentration of particles derived from Lorenz-Mie calculation of OPC scattering (μg/m³),mass concentration of particles derived from Lorenz-Mie calculation of OPC scattering (μg/m³),mass concentration of particles derived from Lorenz-Mie calculation of OPC scattering (μg/m³)
DateTimeUTC,F1_M11,P_M11,Q1_M11,Q2_M11,T1_M11,T2_M11,T3_M11,T4_M11,T5_M11,U1_M11,ZSPAN_M11,X0_M11,X2_M11,X1_M11
2024-03-05 01:00:00,SystemResetWarning,0822.2,5.01,000.00,022.3,021.6,000.0,030.7,024.2,13.9,0000.0,0013.37,0003.09,0001.87
2024-03-05 01:01:00,SystemResetWarning,0822.2,5.01,000.00,022.3,021.6,000.0,030.7,024.2,13.9,0000.0,0013.08,0003.04,0001.89
2024-03-05 01:02:00,SystemResetWarning,0822.3,5.00,000.00,022.3,021.6,000.0,030.7,024.2,14.0,0000.0,0012.58,0003.03,0001.90
2024-03-05 01:03:00,SystemResetWarning,0822.3,4.98,000.00,022.3,021.6,000.0,030.7,024.2,14.0,0000.0,0012.10,0003.01,0001.91
2024-03-05 01:04:00,SystemResetWarning,0822.4,5.00,000.00,022.3,021.6,000.0,030.7,024.1,14.1,0000.0,0011.35,0003.04,0001.92
2024-03-05 01:05:00,SystemResetWarning,0822.2,5.01,000.00,022.3,021.6,000.0,030.7,024.2,14.1,0000.0,0011.65,0003.05,0001.93
2024-03-05 01:06:00,SystemResetWarning,0822.2,5.01,000.00,022.3,021.6,000.0,030.8,024.1,14.2,0000.0,0011.98,0003.09,0001.95
2024-03-05 01:07:00,SystemResetWarning,0822.2,5.00,000.00,022.3,021.6,000.0,030.8,024.2,14.2,0000.0,0011.93,0003.14,0001.95
2024-03-05 01:08:00,SystemResetWarning,0822.2,5.00,000.00,022.3,021.6,000.0,030.8,024.2,14.3,0000.0,0010.94,0003.13,0001.96
2024-03-05 01:09:00,SystemResetWarning,0822.3,4.99,000.00,022.3,021.6,000.0,030.8,024.2,14.3,0000.0,0011.04,0003.14,0001.97
2024-03-05 01:10:00,SystemResetWarning,0822.4,4.99,000.00,022.3,021.6,000.0,030.8,024.2,14.3,0000.0,0009.91,0003.18,0002.00
2024-03-05 01:11:00,SystemResetWarning,0822.4,5.00,000.00,022.3,021.6,000.0,030.8,024.2,14.2,0000.0,0009.32,0003.19,0002.01
2024-03-05 01:12:00,SystemResetWarning,0822.4,5.01,000.00,022.3,021.6,000.0,030.8,024.1,14.2,0000.0,0009.61,0003.21,0002.01
2024-03-05 01:13:00,SystemResetWarning,0822.4,5.01,000.00,022.3,021.6,000.0,030.8,024.2,14.0,0000.0,0010.08,0003.24,0002.02
2024-03-05 01:14:00,SystemResetWarning,0822.6,4.99,000.00,022.3,021.6,000.0,030.8,024.2,14.1,0000.0,0010.83,0003.22,0002.02
2024-03-05 01:15:00,SystemResetWarning,0822.4,4.99,000.00,022.3,021.6,000.0,030.8,024.2,14.1,0000.0,0011.05,0003.21,0002.01
2024-03-05 01:16:00,SystemResetWarning,0822.5,5.01,000.00,022.3,021.6,000.0,030.8,024.1,14.2,0000.0,0010.75,0003.17,0002.02
2024-03-05 01:17:00,SystemResetWarning,0823.0,5.01,000.00,022.4,021.6,000.0,030.8,024.1,14.2,0000.0,0010.22,0003.18,0002.04
2024-03-05 01:18:00,SystemResetWarning,0822.9,5.00,000.00,022.4,021.6,000.0,030.8,024.1,14.3,0000.0,0010.71,0003.17,0002.04
2024-03-05 01:19:00,SystemResetWarning,0822.7,5.01,000.00,022.4,021.6,000.0,030.8,024.2,14.4,0000.0,0010.76,0003.19,0002.06
2024-03-05 01:20:00,SystemResetWarning,0822.8,5.00,000.00,022.4,021.6,000.0,030.8,024.2,14.5,0000.0,0010.32,0003.17,0002.07
2024-03-05 01:21:00,SystemResetWarning,0822.7,4.99,000.00,022.3,021.6,000.0,030.8,024.1,14.6,0000.0,0010.52,0003.16,0002.08
2024-03-05 01:22:00,SystemResetWarning,0822.8,5.00,000.00,022.3,021.6,000.0,030.8,024.1,14.7,0000.0,0010.54,0003.15,0002.07
2024-03-05 01:23:00,SystemResetWarning,0822.5,5.00,000.00,022.3,021.6,000.0,030.8,024.1,14.8,0000.0,0010.28,0003.14,0002.09
2024-03-05 01:24:00,SystemResetWarning,0822.8,5.00,000.00,022.3,021.6,000.0,030.8,024.1,14.9,0000.0,0009.59,0003.15,0002.10
2024-03-05 01:25:00,SystemResetWarning,0822.8,5.01,000.00,022.3,021.5,000.0,030.8,024.1,14.9,0000.0,0009.04,0003.19,0002.12
2024-03-05 01:26:00,SystemResetWarning,0822.6,4.99,000.00,022.3,021.5,000.0,030.8,024.1,14.9,0000.0,0008.64,0003.21,0002.15
2024-03-05 01:27:00,SystemResetWarning,0822.6,5.01,000.00,022.3,021.5,000.0,030.8,024.1,14.9,0000.0,0009.53,0003.26,0002.16
2024-03-05 01:28:00,SystemResetWarning,0822.8,5.01,000.00,022.3,021.5,000.0,030.8,024.1,14.9,0000.0,0010.34,0003.27,0002.17
2024-03-05 01:29:00,SystemResetWarning,0823.1,5.00,000.00,022.3,021.5,000.0,030.8,024.1,15.0,0000.0,0010.96,0003.27,0002.18
2024-03-05 01:30:00,SystemResetWarning,0822.5,4.99,000.00,022.3,021.5,000.0,030.8,024.1,15.0,0000.0,0011.05,0003.26,0002.18
2024-03-05 01:31:00,SystemResetWarning,0822.5,5.00,000.00,022.3,021.5,000.0,030.8,024.1,15.0,0000.0,0010.95,0003.25,0002.19
2024-03-05 01:32:00,SystemResetWarning,0822.5,5.00,000.00,022.3,021.5,000.0,030.8,024.1,15.0,0000.0,0011.21,0003.25,0002.20
2024-03-05 01:33:00,SystemResetWarning,0822.7,5.00,000.00,022.3,021.5,000.0,030.8,024.1,15.0,0000.0,0011.77,0003.28,0002.23
2024-03-05 01:34:00,SystemResetWarning,0822.5,5.01,000.00,022.3,021.5,000.0,030.8,024.1,15.0,0000.0,0012.04,0003.31,0002.25
2024-03-05 01:35:00,SystemResetWarning,0822.6,5.00,000.00,022.3,021.5,000.0,030.8,024.1,15.0,0000.0,0012.63,0003.33,0002.26
2024-03-05 01:36:00,SystemResetWarning,0822.6,5.00,000.00,022.3,021.5,000.0,030.8,024.1,14.9,0000.0,0012.84,0003.34,0002.26
2024-03-05 01:37:00,SystemResetWarning,0823.0,4.99,000.00,022.3,021.5,000.0,030.8,024.1,14.9,0000.0,0013.24,0003.36,0002.28
2024-03-05 01:38:00,SystemResetWarning,0822.7,5.00,000.00,022.3,021.5,000.0,030.8,024.1,14.9,0000.0,0012.67,0003.35,0002.28
2024-03-05 01:39:00,SystemResetWarning,0822.9,5.00,000.00,022.3,021.5,000.0,030.8,024.1,14.9,0000.0,0012.25,0003.36,0002.29
2024-03-05 01:40:00,SystemResetWarning,0822.7,5.00,000.00,022.3,021.5,000.0,030.8,024.1,14.9,0000.0,0012.30,0003.35,0002.30
2024-03-05 01:41:00,SystemResetWarning,0822.8,5.00,000.00,022.3,021.5,000.0,030.8,024.1,14.9,0000.0,0012.27,0003.37,0002.31
2024-03-05 01:42:00,SystemResetWarning,0822.7,5.00,000.00,022.3,021.5,000.0,030.8,024.1,14.9,0000.0,0012.36,0003.40,0002.31
2024-03-05 01:43:00,SystemResetWarning,0822.8,5.00,000.00,022.3,021.5,000.0,030.8,024.1,15.0,0000.0,0012.36,0003.39,0002.31
2024-03-05 01:44:00,SystemResetWarning,0822.8,5.00,000.00,022.3,021.5,000.0,030.8,024.1,15.0,0000.0,0013.15,0003.38,0002.31
2024-03-05 01:45:00,SystemResetWarning,0822.8,5.00,000.00,022.3,021.5,000.0,030.8,024.1,14.9,0000.0,0013.21,0003.36,0002.30
2024-03-05 01:46:00,SystemResetWarning,0822.8,5.00,000.00,022.3,021.5,000.0,030.8,024.1,14.9,0000.0,0012.93,0003.36,0002.29
2024-03-05 01:47:00,SystemResetWarning,0823.2,4.99,000.00,022.3,021.5,000.0,030.8,024.1,14.8,0000.0,0012.97,0003.35,0002.30
2024-03-05 01:48:00,SystemResetWarning,0822.9,4.99,000.00,022.3,021.5,000.0,030.7,024.1,14.8,0000.0,0012.59,0003.35,0002.29
2024-03-05 01:49:00,SystemResetWarning,0823.0,5.01,000.00,022.2,021.5,000.0,030.7,024.1,14.8,0000.0,0012.39,0003.33,0002.29
2024-03-05 01:50:00,SystemResetWarning,0822.9,5.01,000.00,022.2,021.4,000.0,030.7,024.0,14.8,0000.0,0013.23,0003.31,0002.27
2024-03-05 01:51:00,SystemResetWarning,0822.8,4.99,000.00,022.2,021.4,000.0,030.7,024.0,14.9,0000.0,0012.75,0003.31,0002.26
2024-03-05 01:52:00,SystemResetWarning,0822.9,4.99,000.00,022.2,021.4,000.0,030.7,024.1,14.9,0000.0,0012.32,0003.31,0002.24
2024-03-05 01:53:00,SystemResetWarning,0822.9,5.00,000.00,022.2,021.4,000.0,030.7,024.0,14.9,0000.0,0012.28,0003.30,0002.24
2024-03-05 01:54:00,SystemResetWarning,0822.8,5.01,000.00,022.2,021.4,000.0,030.7,024.1,14.9,0000.0,0012.27,0003.30,0002.24
2024-03-05 01:55:00,SystemResetWarning,0822.9,5.00,000.00,022.2,021.4,000.0,030.7,024.1,14.9,0000.0,0010.62,0003.30,0002.24
2024-03-05 01:56:00,SystemResetWarning,0822.9,4.99,000.00,022.2,021.4,000.0,030.7,024.0,14.8,0000.0,0010.26,0003.29,0002.23
2024-03-05 01:57:00,SystemResetWarning,0823.0,5.00,000.00,022.2,021.4,000.0,030.7,024.0,14.8,0000.0,0009.90,0003.25,0002.22
2024-03-05 01:58:00,SystemResetWarning,0823.0,5.00,000.00,022.2,021.4,000.0,030.7,024.0,14.8,0000.0,0009.37,0003.18,0002.20
2024-03-05 01:59:00,SystemResetWarning,0822.8,4.99,000.00,022.2,021.4,000.0,030.7,024.0,14.8,0000.0,0010.30,0003.13,0002.17
